Orbital Elements at Epoch 2459000.5 (2020-May-31.0) TDB
Reference: JPL 26 (heliocentric ecliptic J2000)
Element | Value | Uncertainty (1-sigma) | Units |
e | .16253287781651 | 4.0868e-08 | |
a | 2.64818808054557 | 1.1034e-08 | au |
q | 2.217770450815119 | 1.0721e-07 | au |
i | 13.83395421495594 | 4.5392e-06 | deg |
node | 182.4250643850459 | 1.4508e-05 | deg |
peri | 199.4760106061484 | 1.8953e-05 | deg |
M | 122.5241559232035 | 1.1969e-05 | deg |
tp | 2458464.776268563423 (2018-Dec-12.27626856) | 5.1133e-05 | TDB |
period | 1574.06139111091 4.31 | 9.8378e-06 2.693e-08 | d yr |
n | .2287077251452856 | 1.4294e-09 | deg/d |
Q | 3.078605710276022 | 1.2827e-08 | au |
|
| | Orbit Determination Parameters
Additional Information
|